User: anonymous   Login
Location: Unspecified
(0.0000°N, 0.0000°E)
Time: 05:02:26
(UTC+00:00)
Language:

Snapshot - Orbit

View from above orbital plane
View from above orbital plane
View from above satellite
View from above satellite

Ground track
Ground track

The orbit data is extracted from the following two-line orbital elements,

1  1314U 65027A   18320.86633302  .00000009  00000-0  80970-5 0  9992
2  1314  90.3016 299.1677 0029098 312.9161 105.7097 12.91754804273891
Epoch (UTC): 16 November 2018 20:47:31
Eccentricity: 0.0029098
inclination: 90.3016°
perigee height: 1272 km
apogee height: 1317 km
right ascension of ascending node: 299.1677°
argument of perigee: 312.9161°
revolutions per day: 12.91754804
mean anomaly at epoch: 105.7097°
orbit number at epoch: 27389

The dashed part of the orbit path shows where the satellite is in the earth's shadow,  

DLR